AirNav   Everest Fuels
 
 1549 users online  

OK01 Skyhaven Airpark
Vera, Oklahoma, USA

GOING TO VERA?


FAA INFORMATION EFFECTIVE 15 JULY 2021

Location

FAA Identifier: OK01
Lat/Long: 36-25-44.3300N 095-54-11.9600W
36-25.738833N 095-54.199333W
36.4289806,-95.9033222
(estimated)
Elevation: 675 ft. / 206 m (estimated)
Variation: 05E (2000)
From city: 2 miles SW of VERA, OK
Time zone: UTC -5 (UTC -6 during Standard Time)
Zip code: 74021

Airport Operations

Airport use: Private use. Permission required prior to landing
Activation date: 11/2000
Control tower: no
ARTCC: KANSAS CITY CENTER
FSS: MC ALESTER FLIGHT SERVICE STATION
Attendance: UNATNDD
Segmented circle: no

Airport Communications

UNICOM: 122.8
WX ASOS at TUL (14 nm S): PHONE 918-831-6772
WX AWOS-3PT at OWP (19 nm SW): 118.325 (918-246-2635)

Nearby radio navigation aids

VOR radial/distance  VOR name  Freq  Var
TULr330/15.0TULSA VORTAC114.4008E
BVOr159/24.9BARTLESVILLE VOR/DME117.9008E

 
NDB name  Hdg/Dist  Freq  Var  ID
WILLIAM POGUE032/19.636206EOWP --- .-- .--.

Airport Services

Runway Information

Runway 17/35

Dimensions: 4400 x 75 ft. / 1341 x 23 m
Surface: turf
RUNWAY 17  RUNWAY 35
Traffic pattern: leftleft

Airport Ownership and Management from official FAA records

Ownership: Privately-owned
Owner: SKYHAVEN RUNWAY ASSOCIATION
PO BOX 490
COLLINSVILLE, OK 74021
Phone 918-371-2877
Manager: JOHN NYS
PO BOX 490
COLLINSVILLE, OK 74021
Phone (918) 519-5846
PRESIDENT, SKYHAVEN RUNWAY ASSOCIATION. EMAIL: JNYS1943@GMAIL.COM.

Airport Operational Statistics

Aircraft based on the field: 12
Single engine airplanes: 11
Multi engine airplanes: 1
    

Additional Remarks

FOR CD CTC TULSA APCH AT 918-831-6714/6720.

Instrument Procedures

There are no published instrument procedures at OK01.

Some nearby airports with instrument procedures:

KTUL - Tulsa International Airport (14 nm S)
KOWP - William R Pogue Municipal Airport (19 nm SW)
KBVO - Bartlesville Municipal Airport (21 nm N)
KGCM - Claremore Regional Airport (22 nm E)
KRVS - Richard Lloyd Jones Jr Airport (24 nm S)
 
Loc | Ops | Rwys | IFR | FBO | Links
Com | Nav | Svcs | Stats | Notes
Area around OK01 (Skyhaven Airpark)
 
Road maps at: MapQuest Bing Google
 
Aerial photo
WARNING: Photo may not be current or correct
Aerial photo of OK01 (Skyhaven Airpark)
Photo by Stephen E. Dunbar
Photo taken 30-May-2014
looking northeast.

Do you have a better or more recent aerial photo of Skyhaven Airpark that you would like to share? If so, please send us your photo.

 
Sectional chart

 
Airport distance calculator
Flying to Skyhaven Airpark? Find the distance to fly.

From to OK01

Sunrise and sunset
Times for 26-Jul-2021
 Local
(UTC-5)
 Zulu
(UTC)
Morning civil twilight05:5710:57
Sunrise06:2611:26
Sunset20:3401:34
Evening civil twilight21:0302:03

Current date and time
Zulu (UTC)  26-Jul-2021 16:40:30
Local (UTC-5)  26-Jul-2021 11:40:30
 
METAR
KTUL 
14nm S 
261553Z 36004KT 10SM CLR 31/24 A2998 RMK AO2 SLP143 T03060244
KOWP 
19nm SW 
261615Z AUTO 06004KT 10SM CLR 33/25 A2999 RMK AO2 T03270251 PWINO
KBVO 
21nm N 
261553Z AUTO 14003KT 10SM FEW013 29/26 A3001 RMK AO2 SLP151 T02890256
KGCM 
22nm E 
261615Z AUTO 00000KT 7SM CLR 30/23 A3002 RMK AO2
KRVS 
23nm S 
261553Z 00000KT 10SM CLR 32/24 A2998 RMK AO2 SLP155 T03170244
TAF
KTUL 
14nm S 
261120Z 2612/2712 VRB03KT P6SM SCT250 FM261600 12005KT P6SM SCT070 PROB30 2621/2624 4SM TSRA BKN050CB FM270200 VRB03KT P6SM SCT100
NOTAMs
Click for the latest NOTAMs
NOTAMs are issued by the DoD/FAA and will open in a separate window not controlled by AirNav.

 

 
 

Would you like to see your business listed on this page?

 If your business provides an interesting product or service to pilots, flight crews, aircraft, or users of the Skyhaven Airpark, you should consider listing it here.  To start the listing process, click on the button below
 
Add a business
 

Other Pages about Skyhaven Airpark

Update a link
 
Copyright © AirNav, LLC. All rights reserved. Privacy Policy  Contact